Regional Weather Roundup
Issued by NWS

Home | Current Version | Previous Version | Graphics & Text | Print | Product List | Glossary On
Versions: 1 2 3 4 5 6 7 8 9 10 11 12 13 14 15 16 17 18 19 20 21 22 23 24 25 26 27 28 29 30 31 32 33 34 35 36 37 38 39 40 41 42 43 44 45 46 47 48 49 50
000
ASUS43 KOAX 242102
RWRNE

WEATHER ROUNDUP FOR NEBRASKA
NATIONAL WEATHER SERVICE OMAHA NE
400 PM CDT TUE APR 24 2018

NOTES: SATELLITE DATA IS BEING USED TO AUGMENT CLOUD COVER ABOVE
       12000 FEET.
       "FAIR" INDICATES FEW OR NO CLOUDS BELOW 12,000 FEET WITH NO
       SIGNIFICANT WEATHER AND/OR OBSTRUCTIONS TO VISIBILITY.


NEZ001>004-019>022-054>056-242200-
NEBRASKA PANHANDLE

CITY           SKY/WX    TMP DP  RH WIND       PRES   REMARKS
SCOTTSBLUFF    CLOUDY    42  33  70 N15       30.42F
ALLIANCE       CLOUDY    39  31  72 N22G29    30.40F WCI  29
CHADRON        LGT RAIN  43  32  65 NE18G24   30.46F
SIDNEY         CLOUDY    40  31  70 N21       30.39F WCI  30
$$

NEZ057>060-069>072-079>082-242200-
SOUTHWEST NEBRASKA

CITY           SKY/WX    TMP DP  RH WIND       PRES   REMARKS
NORTH PLATTE   CLOUDY    43  36  76 N20G29    30.33S
IMPERIAL       CLOUDY    43  36  76 NW24G32   30.34F
MCCOOK         CLOUDY    44  39  82 NW21      30.31F
$$

NEZ005>010-023>029-035>040-094-242200-
NORTH CENTRAL NEBRASKA

CITY           SKY/WX    TMP DP  RH WIND       PRES   REMARKS
VALENTINE      CLOUDY    40  36  86 N18G36    30.37R WCI  31
BROKEN BOW     CLOUDY    42  39  89 NW22G32   30.28S
ORD            CLOUDY    45  44  97 NW21G28   30.23F FOG
$$

NEZ041-046>049-061>064-073>077-083>087-242200-
SOUTH CENTRAL NEBRASKA

CITY           SKY/WX    TMP DP  RH WIND       PRES   REMARKS
GRAND ISLAND   LGT RAIN  45  42  89 NW15      30.25S
HASTINGS       LGT RAIN  45  44  97 NW20      30.23F
$$

NEZ011>018-030>034-042>045-242200-
NORTHEAST NEBRASKA

CITY           SKY/WX    TMP DP  RH WIND       PRES   REMARKS
$$

NEZ050>053-065>068-078-088>093-242200-
SOUTHEAST NEBRASKA

CITY           SKY/WX    TMP DP  RH WIND       PRES   REMARKS
OMAHA EPPLEY   CLOUDY    68  41  37 NW22      30.10R
FALLS CITY     CLOUDY    74  33  22 NW9       30.07F
$$

NEZ044-045-051>053-067-242200-
OMAHA AREA

CITY           SKY/WX    TMP DP  RH WIND       PRES   REMARKS
OMAHA EPPLEY   CLOUDY    68  41  37 NW22      30.10R
$$




USA.gov is the U.S. government's official web portal to all federal, state and local government web resources and services.